| time (UTC) | temp F | wind direction | speed MPH | gust MPH | rain 1hr in | rain 24hr in | rain mn in | humidity % | barometer mb |
| 20260901060007 | 58 | 310 | 2.0 | 6.0 | 0.00 | 0.00 | 0.00 | 63 | 1010.1 |
| 20260901055507 | 59 | 179 | 0.0 | 5.0 | 0.00 | 0.00 | 0.00 | 61 | 1010.0 |
| 20260901055006 | 59 | 177 | 0.0 | 4.0 | 0.00 | 0.00 | 0.00 | 60 | 1009.9 |
| 20260901054506 | 59 | 177 | 0.0 | 4.0 | 0.00 | 0.00 | 0.00 | 59 | 1009.9 |
| 20260901054007 | 60 | 177 | 0.0 | 6.0 | 0.00 | 0.00 | 0.00 | 57 | 1009.9 |
| 20260901053506 | 61 | 177 | 0.0 | 7.0 | 0.00 | 0.00 | 0.00 | 56 | 1009.9 |
| 20260901053007 | 61 | 177 | 3.0 | 10.0 | 0.00 | 0.00 | 0.00 | 56 | 1010.0 |
| 20260901052506 | 61 | 176 | 0.0 | 7.0 | 0.00 | 0.00 | 0.00 | 56 | 1010.0 |
| 20260901052006 | 61 | 175 | 1.0 | 6.0 | 0.00 | 0.00 | 0.00 | 57 | 1010.1 |
| 20260901051506 | 61 | 175 | 0.0 | 7.0 | 0.00 | 0.00 | 0.00 | 55 | 1010.2 |
| 20260901051007 | 61 | 175 | 0.0 | 9.0 | 0.00 | 0.00 | 0.00 | 56 | 1010.2 |
| 20260901050506 | 61 | 176 | 2.0 | 10.0 | 0.00 | 0.00 | 0.00 | 56 | 1010.1 |
| 20260901050006 | 59 | 189 | 4.0 | 10.0 | 0.00 | 0.00 | 0.00 | 60 | 1010.0 |
| 20260901045506 | 57 | 171 | 2.0 | 7.0 | 0.00 | 0.00 | 0.00 | 64 | 1010.1 |
| 20260901045106 | 56 | 331 | 0.0 | 3.0 | 0.00 | 0.00 | 0.00 | 67 | 1010.0 |
| 20260901044508 | 55 | 332 | 0.0 | 0.0 | 0.00 | 0.00 | 0.00 | 67 | 1010.0 |
| 20260901044006 | 56 | 332 | 0.0 | 0.0 | 0.00 | 0.00 | 0.00 | 67 | 1010.1 |
| 20260901043607 | 56 | 332 | 0.0 | 0.0 | 0.00 | 0.00 | 0.00 | 67 | 1010.1 |
| 20260901043006 | 56 | 332 | 0.0 | 0.0 | 0.00 | 0.00 | 0.00 | 67 | 1010.1 |
| 20260901042505 | 57 | 332 | 0.0 | 0.0 | 0.00 | 0.00 | 0.00 | 66 | 1010.1 |
| 20260901042006 | 57 | 332 | 0.0 | 0.0 | 0.00 | 0.00 | 0.00 | 65 | 1009.9 |
| 20260901041520 | 57 | 332 | 0.0 | 5.0 | 0.00 | 0.00 | 0.00 | 65 | 1009.9 |
| 20260901041006 | 57 | 332 | 1.0 | 5.0 | 0.00 | 0.00 | 0.00 | 65 | 1009.8 |
| 20260901040506 | 58 | 332 | 1.0 | 5.0 | 0.00 | 0.00 | 0.00 | 64 | 1009.7 |
| 20260901040006 | 58 | 332 | 1.0 | 4.0 | 0.00 | 0.00 | 0.00 | 64 | 1009.6 |
| 20260901035507 | 58 | 332 | 0.0 | 5.0 | 0.00 | 0.00 | 0.00 | 64 | 1009.6 |
| 20260901035007 | 58 | 332 | 0.0 | 5.0 | 0.00 | 0.00 | 0.00 | 64 | 1009.4 |
| 20260901034505 | 59 | 332 | 0.0 | 7.0 | 0.00 | 0.00 | 0.00 | 63 | 1009.4 |
| 20260901034006 | 59 | 332 | 2.0 | 7.0 | 0.00 | 0.00 | 0.00 | 62 | 1009.3 |
| 20260901033506 | 60 | 332 | 3.0 | 7.0 | 0.00 | 0.00 | 0.00 | 60 | 1009.2 |
| 20260901033014 | 60 | 332 | 0.0 | 0.0 | 0.00 | 0.00 | 0.00 | 58 | 1009.1 |
| 20260901032507 | 61 | 332 | 0.0 | 5.0 | 0.00 | 0.00 | 0.00 | 57 | 1009.1 |
| 20260901032006 | 61 | 332 | 0.0 | 5.0 | 0.00 | 0.00 | 0.00 | 56 | 1009.1 |
| 20260901031509 | 62 | 332 | 2.0 | 6.0 | 0.00 | 0.00 | 0.00 | 55 | 1009.1 |
| 20260901031006 | 62 | 332 | 1.0 | 6.0 | 0.00 | 0.00 | 0.00 | 54 | 1009.0 |
| 20260901030506 | 63 | 332 | 2.0 | 7.0 | 0.00 | 0.00 | 0.00 | 53 | 1008.8 |
| 20260901030007 | 63 | 332 | 4.0 | 7.0 | 0.00 | 0.00 | 0.00 | 51 | 1008.7 |
| 20260901025509 | 64 | 324 | 0.0 | 6.0 | 0.00 | 0.00 | 0.00 | 49 | 1008.8 |
| 20260901025009 | 65 | 323 | 2.0 | 5.0 | 0.00 | 0.00 | 0.00 | 47 | 1008.7 |
| 20260901024506 | 66 | 179 | 1.0 | 5.0 | 0.00 | 0.00 | 0.00 | 44 | 1008.7 |
| 20260901024010 | 68 | 177 | 0.0 | 2.0 | 0.00 | 0.00 | 0.00 | 41 | 1008.7 |
| 20260901023507 | 69 | 177 | 0.0 | 9.0 | 0.00 | 0.00 | 0.00 | 34 | 1008.7 |
| 20260901023008 | 69 | 177 | 2.0 | 9.0 | 0.00 | 0.00 | 0.00 | 33 | 1008.7 |
| 20260901022510 | 70 | 160 | 5.0 | 9.0 | 0.00 | 0.00 | 0.00 | 32 | 1008.6 |
| 20260901022007 | 70 | 160 | 5.0 | 10.0 | 0.00 | 0.00 | 0.00 | 31 | 1008.5 |
| 20260901021515 | 70 | 160 | 7.0 | 10.0 | 0.00 | 0.00 | 0.00 | 31 | 1008.6 |
| 20260901021007 | 70 | 158 | 5.0 | 9.0 | 0.00 | 0.00 | 0.00 | 30 | 1008.6 |
| 20260901020507 | 71 | 152 | 4.0 | 9.0 | 0.00 | 0.00 | 0.00 | 30 | 1008.6 |
| 20260901020008 | 72 | 170 | 3.0 | 12.0 | 0.00 | 0.00 | 0.00 | 28 | 1008.6 |
| 20260901015606 | 72 | 171 | 2.0 | 12.0 | 0.00 | 0.00 | 0.00 | 28 | 1008.6 |
| 20260901015007 | 73 | 177 | 2.0 | 9.0 | 0.00 | 0.00 | 0.00 | 26 | 1008.6 |
| 20260901014506 | 74 | 170 | 0.0 | 13.0 | 0.00 | 0.00 | 0.00 | 22 | 1008.6 |
| 20260901014006 | 74 | 169 | 9.0 | 13.0 | 0.00 | 0.00 | 0.00 | 20 | 1008.5 |
| 20260901013506 | 74 | 170 | 4.0 | 11.0 | 0.00 | 0.00 | 0.00 | 18 | 1008.6 |
| 20260901013007 | 74 | 168 | 1.0 | 11.0 | 0.00 | 0.00 | 0.00 | 18 | 1008.5 |
| 20260901012607 | 74 | 166 | 3.0 | 11.0 | 0.00 | 0.00 | 0.00 | 18 | 1008.5 |
| 20260901012007 | 75 | 164 | 4.0 | 8.0 | 0.00 | 0.00 | 0.00 | 17 | 1008.6 |
| 20260901011506 | 75 | 195 | 0.0 | 8.0 | 0.00 | 0.00 | 0.00 | 16 | 1008.6 |
| 20260901011006 | 75 | 181 | 0.0 | 9.0 | 0.00 | 0.00 | 0.00 | 16 | 1008.5 |
| 20260901010507 | 76 | 195 | 4.0 | 9.0 | 0.00 | 0.00 | 0.00 | 15 | 1008.5 |
| 20260901010015 | 76 | 197 | 3.0 | 14.0 | 0.00 | 0.00 | 0.00 | 15 | 1008.5 |
| 20260901005507 | 76 | 203 | 7.0 | 14.0 | 0.00 | 0.00 | 0.00 | 15 | 1008.4 |
| 20260901005006 | 76 | 199 | 6.0 | 12.0 | 0.00 | 0.00 | 0.00 | 15 | 1008.5 |
| 20260901004507 | 76 | 193 | 5.0 | 14.0 | 0.00 | 0.00 | 0.00 | 16 | 1008.5 |
| 20260901004006 | 76 | 198 | 9.0 | 15.0 | 0.00 | 0.00 | 0.00 | 16 | 1008.6 |
| 20260901003506 | 76 | 206 | 3.0 | 11.0 | 0.00 | 0.00 | 0.00 | 16 | 1008.7 |
| 20260901003012 | 76 | 193 | 0.0 | 9.0 | 0.00 | 0.00 | 0.00 | 15 | 1008.7 |
| 20260901002507 | 77 | 187 | 5.0 | 15.0 | 0.00 | 0.00 | 0.00 | 14 | 1008.8 |
| 20260901002005 | 77 | 175 | 9.0 | 15.0 | 0.00 | 0.00 | 0.00 | 14 | 1008.8 |
| 20260901001507 | 77 | 166 | 6.0 | 16.0 | 0.00 | 0.00 | 0.00 | 15 | 1008.8 |
| 20260901001006 | 77 | 187 | 8.0 | 16.0 | 0.00 | 0.00 | 0.00 | 14 | 1008.8 |
| 20260901000506 | 77 | 179 | 7.0 | 15.0 | 0.00 | 0.00 | 0.00 | 17 | 1008.8 |
| 20260901000018 | 77 | 199 | 4.0 | 16.0 | 0.00 | 0.00 | 0.00 | 18 | 1008.7 |
| 20260831235506 | 77 | 188 | 9.0 | 16.0 | 0.00 | 0.00 | 0.00 | 17 | 1008.8 |
| 20260831235007 | 78 | 205 | 4.0 | 17.0 | 0.00 | 0.00 | 0.00 | 18 | 1008.7 |
| 20260831234507 | 78 | 177 | 4.0 | 19.0 | 0.00 | 0.00 | 0.00 | 18 | 1008.6 |
| 20260831234008 | 77 | 199 | 9.0 | 20.0 | 0.00 | 0.00 | 0.00 | 18 | 1008.7 |
| 20260831233507 | 77 | 164 | 13.0 | 20.0 | 0.00 | 0.00 | 0.00 | 19 | 1008.7 |
| 20260831233006 | 78 | 169 | 11.0 | 19.0 | 0.00 | 0.00 | 0.00 | 19 | 1008.6 |
| 20260831232506 | 78 | 170 | 13.0 | 19.0 | 0.00 | 0.00 | 0.00 | 18 | 1008.6 |
| 20260831232006 | 78 | 191 | 11.0 | 17.0 | 0.00 | 0.00 | 0.00 | 18 | 1008.6 |
| 20260831231506 | 79 | 177 | 10.0 | 17.0 | 0.00 | 0.00 | 0.00 | 18 | 1008.6 |
| 20260831231007 | 79 | 194 | 9.0 | 16.0 | 0.00 | 0.00 | 0.00 | 18 | 1008.6 |
| 20260831230506 | 79 | 185 | 6.0 | 14.0 | 0.00 | 0.00 | 0.00 | 18 | 1008.7 |
| 20260831230117 | 79 | 145 | 6.0 | 17.0 | 0.00 | 0.00 | 0.00 | 19 | 1008.8 |
| 20260831225506 | 78 | 177 | 11.0 | 17.0 | 0.00 | 0.00 | 0.00 | 19 | 1008.9 |
| 20260831225008 | 79 | 176 | 7.0 | 15.0 | 0.00 | 0.00 | 0.00 | 18 | 1009.0 |
| 20260831224508 | 79 | 184 | 9.0 | 15.0 | 0.00 | 0.00 | 0.00 | 18 | 1009.0 |
| 20260831224009 | 79 | 177 | 8.0 | 15.0 | 0.00 | 0.00 | 0.00 | 18 | 1009.1 |
| 20260831223507 | 79 | 183 | 6.0 | 14.0 | 0.00 | 0.00 | 0.00 | 17 | 1009.0 |
| 20260831223007 | 80 | 145 | 4.0 | 13.0 | 0.00 | 0.00 | 0.00 | 16 | 1009.1 |
| 20260831222506 | 79 | 181 | 5.0 | 17.0 | 0.00 | 0.00 | 0.00 | 16 | 1009.1 |
| 20260831222006 | 79 | 169 | 5.0 | 17.0 | 0.00 | 0.00 | 0.00 | 16 | 1009.2 |
| 20260831221507 | 79 | 191 | 2.0 | 14.0 | 0.00 | 0.00 | 0.00 | 17 | 1009.2 |
| 20260831221006 | 79 | 189 | 7.0 | 14.0 | 0.00 | 0.00 | 0.00 | 15 | 1009.2 |
| 20260831220506 | 79 | 171 | 6.0 | 14.0 | 0.00 | 0.00 | 0.00 | 14 | 1009.2 |
| 20260831220011 | 79 | 178 | 3.0 | 18.0 | 0.00 | 0.00 | 0.00 | 14 | 1009.2 |
| 20260831215507 | 79 | 174 | 8.0 | 18.0 | 0.00 | 0.00 | 0.00 | 15 | 1009.3 |
| 20260831215007 | 79 | 198 | 4.0 | 19.0 | 0.00 | 0.00 | 0.00 | 15 | 1009.3 |
| 20260831214506 | 79 | 185 | 6.0 | 19.0 | 0.00 | 0.00 | 0.00 | 15 | 1009.4 |
| 20260831214006 | 78 | 158 | 11.0 | 21.0 | 0.00 | 0.00 | 0.00 | 14 | 1009.5 |
| 20260831213511 | 79 | 174 | 11.0 | 21.0 | 0.00 | 0.00 | 0.00 | 12 | 1009.5 |
| 20260831213009 | 79 | 201 | 9.0 | 21.0 | 0.00 | 0.00 | 0.00 | 12 | 1009.4 |
| 20260831212507 | 80 | 160 | 8.0 | 18.0 | 0.00 | 0.00 | 0.00 | 12 | 1009.4 |
| 20260831212010 | 78 | 187 | 6.0 | 18.0 | 0.00 | 0.00 | 0.00 | 11 | 1009.5 |
| 20260831211507 | 79 | 176 | 9.0 | 18.0 | 0.00 | 0.00 | 0.00 | 13 | 1009.5 |
| 20260831211007 | 78 | 174 | 9.0 | 18.0 | 0.00 | 0.00 | 0.00 | 15 | 1009.6 |
| 20260831210511 | 78 | 159 | 12.0 | 22.0 | 0.00 | 0.00 | 0.00 | 14 | 1009.6 |
| 20260831210007 | 79 | 168 | 10.0 | 16.0 | 0.00 | 0.00 | 0.00 | 15 | 1009.7 |
| 20260831205506 | 78 | 187 | 5.0 | 17.0 | 0.00 | 0.00 | 0.00 | 15 | 1009.7 |
| 20260831205007 | 77 | 163 | 11.0 | 17.0 | 0.00 | 0.00 | 0.00 | 17 | 1009.6 |
| 20260831204507 | 77 | 152 | 10.0 | 18.0 | 0.00 | 0.00 | 0.00 | 18 | 1009.8 |
| 20260831204009 | 76 | 170 | 11.0 | 20.0 | 0.00 | 0.00 | 0.00 | 18 | 1009.9 |
| 20260831203506 | 77 | 181 | 8.0 | 20.0 | 0.00 | 0.00 | 0.00 | 16 | 1010.0 |
| 20260831203006 | 77 | 169 | 3.0 | 16.0 | 0.00 | 0.00 | 0.00 | 17 | 1010.0 |
| 20260831202509 | 78 | 201 | 8.0 | 16.0 | 0.00 | 0.00 | 0.00 | 14 | 1010.0 |
| 20260831202007 | 78 | 206 | 3.0 | 15.0 | 0.00 | 0.00 | 0.00 | 13 | 1010.0 |
| 20260831201506 | 78 | 205 | 2.0 | 19.0 | 0.00 | 0.00 | 0.00 | 16 | 1009.9 |
| 20260831201007 | 77 | 194 | 5.0 | 19.0 | 0.00 | 0.00 | 0.00 | 18 | 1010.0 |
| 20260831200506 | 77 | 201 | 6.0 | 16.0 | 0.00 | 0.00 | 0.00 | 20 | 1010.0 |
| 20260831200006 | 76 | 183 | 9.0 | 16.0 | 0.00 | 0.00 | 0.00 | 21 | 1010.0 |
| 20260831195507 | 76 | 172 | 6.0 | 16.0 | 0.00 | 0.00 | 0.00 | 22 | 1010.0 |
| 20260831195007 | 76 | 173 | 7.0 | 15.0 | 0.00 | 0.00 | 0.00 | 21 | 1010.2 |
| 20260831194511 | 77 | 189 | 7.0 | 14.0 | 0.00 | 0.00 | 0.00 | 20 | 1010.2 |
| 20260831194007 | 77 | 198 | 10.0 | 16.0 | 0.00 | 0.00 | 0.00 | 19 | 1010.2 |
| 20260831193506 | 77 | 179 | 6.0 | 18.0 | 0.00 | 0.00 | 0.00 | 18 | 1010.2 |
| 20260831193007 | 77 | 204 | 5.0 | 18.0 | 0.00 | 0.00 | 0.00 | 15 | 1010.2 |
| 20260831192506 | 77 | 185 | 5.0 | 15.0 | 0.00 | 0.00 | 0.00 | 15 | 1010.3 |
| 20260831192011 | 77 | 193 | 6.0 | 15.0 | 0.00 | 0.00 | 0.00 | 16 | 1010.3 |
| 20260831191506 | 77 | 215 | 5.0 | 13.0 | 0.00 | 0.00 | 0.00 | 15 | 1010.3 |
| 20260831191007 | 77 | 180 | 9.0 | 13.0 | 0.00 | 0.00 | 0.00 | 15 | 1010.4 |
| 20260831190507 | 77 | 195 | 4.0 | 15.0 | 0.00 | 0.00 | 0.00 | 15 | 1010.3 |
| 20260831190010 | 76 | 195 | 9.0 | 15.0 | 0.00 | 0.00 | 0.00 | 17 | 1010.3 |
| 20260831185507 | 77 | 154 | 6.0 | 12.0 | 0.00 | 0.00 | 0.00 | 13 | 1010.3 |
| 20260831185006 | 76 | 185 | 5.0 | 12.0 | 0.00 | 0.00 | 0.00 | 17 | 1010.3 |
| 20260831184507 | 76 | 191 | 4.0 | 15.0 | 0.00 | 0.00 | 0.00 | 17 | 1010.4 |
| 20260831184006 | 75 | 195 | 3.0 | 15.0 | 0.00 | 0.00 | 0.00 | 18 | 1010.4 |
| 20260831183506 | 75 | 201 | 8.0 | 15.0 | 0.00 | 0.00 | 0.00 | 18 | 1010.4 |
| 20260831183006 | 75 | 191 | 10.0 | 15.0 | 0.00 | 0.00 | 0.00 | 17 | 1010.5 |
| 20260831182507 | 75 | 193 | 9.0 | 15.0 | 0.00 | 0.00 | 0.00 | 17 | 1010.5 |
| 20260831182007 | 75 | 173 | 2.0 | 15.0 | 0.00 | 0.00 | 0.00 | 17 | 1010.5 |
| 20260831181507 | 76 | 195 | 3.0 | 13.0 | 0.00 | 0.00 | 0.00 | 16 | 1010.5 |
| 20260831181107 | 75 | 196 | 4.0 | 13.0 | 0.00 | 0.00 | 0.00 | 16 | 1010.6 |
| 20260831180507 | 74 | 170 | 8.0 | 14.0 | 0.00 | 0.00 | 0.00 | 17 | 1010.5 |
| 20260831180006 | 74 | 206 | 8.0 | 16.0 | 0.00 | 0.00 | 0.00 | 18 | 1010.5 |
| 20260831175507 | 73 | 189 | 9.0 | 16.0 | 0.00 | 0.00 | 0.00 | 18 | 1010.5 |
| 20260831175008 | 74 | 168 | 9.0 | 17.0 | 0.00 | 0.00 | 0.00 | 18 | 1010.5 |
| 20260831174507 | 74 | 183 | 8.0 | 17.0 | 0.00 | 0.00 | 0.00 | 17 | 1010.5 |
| 20260831174008 | 74 | 184 | 11.0 | 16.0 | 0.00 | 0.00 | 0.00 | 15 | 1010.3 |
| 20260831173510 | 75 | 159 | 9.0 | 13.0 | 0.00 | 0.00 | 0.00 | 15 | 1010.2 |
| 20260831173007 | 75 | 206 | 9.0 | 13.0 | 0.00 | 0.00 | 0.00 | 15 | 1010.2 |
| 20260831172507 | 75 | 163 | 6.0 | 14.0 | 0.00 | 0.00 | 0.00 | 15 | 1010.0 |
| 20260831172007 | 75 | 168 | 6.0 | 11.0 | 0.00 | 0.00 | 0.00 | 14 | 1009.9 |
| 20260831171607 | 75 | 193 | 5.0 | 11.0 | 0.00 | 0.00 | 0.00 | 14 | 1010.0 |
| 20260831171007 | 74 | 175 | 8.0 | 11.0 | 0.00 | 0.00 | 0.00 | 15 | 1010.0 |
| 20260831170507 | 74 | 168 | 5.0 | 11.0 | 0.00 | 0.00 | 0.00 | 16 | 1009.9 |
| 20260831170007 | 74 | 187 | 7.0 | 11.0 | 0.00 | 0.00 | 0.00 | 16 | 1009.9 |
| 20260831165506 | 73 | 189 | 0.0 | 7.0 | 0.00 | 0.00 | 0.00 | 19 | 1009.9 |
| 20260831165007 | 71 | 189 | 1.0 | 7.0 | 0.00 | 0.00 | 0.00 | 23 | 1009.9 |
| 20260831164515 | 70 | 243 | 1.0 | 4.0 | 0.00 | 0.00 | 0.00 | 28 | 1009.9 |
| 20260831164008 | 69 | 243 | 0.0 | 3.0 | 0.00 | 0.00 | 0.00 | 29 | 1009.9 |
| 20260831163508 | 69 | 243 | 1.0 | 5.0 | 0.00 | 0.00 | 0.00 | 30 | 1009.9 |
| 20260831163008 | 68 | 243 | 1.0 | 5.0 | 0.00 | 0.00 | 0.00 | 30 | 1009.9 |
| 20260831162506 | 68 | 240 | 0.0 | 0.0 | 0.00 | 0.00 | 0.00 | 29 | 1009.9 |
| 20260831162007 | 67 | 239 | 0.0 | 0.0 | 0.00 | 0.00 | 0.00 | 31 | 1009.9 |
| 20260831161507 | 67 | 239 | 0.0 | 0.0 | 0.00 | 0.00 | 0.00 | 32 | 1009.9 |
| 20260831161007 | 66 | 239 | 0.0 | 0.0 | 0.00 | 0.00 | 0.00 | 32 | 1009.9 |
| 20260831160507 | 66 | 239 | 0.0 | 0.0 | 0.00 | 0.00 | 0.00 | 33 | 1010.0 |
| 20260831160007 | 66 | 239 | 0.0 | 0.0 | 0.00 | 0.00 | 0.00 | 33 | 1010.0 |
| 20260831155507 | 65 | 239 | 0.0 | 0.0 | 0.00 | 0.00 | 0.00 | 33 | 1010.0 |
| 20260831155007 | 65 | 238 | 0.0 | 0.0 | 0.00 | 0.00 | 0.00 | 34 | 1010.1 |
| 20260831154508 | 65 | 315 | 0.0 | 0.0 | 0.00 | 0.00 | 0.00 | 33 | 1010.1 |
| 20260831154006 | 64 | 315 | 0.0 | 0.0 | 0.00 | 0.00 | 0.00 | 34 | 1010.1 |
| 20260831153509 | 63 | 315 | 0.0 | 0.0 | 0.00 | 0.00 | 0.00 | 34 | 1010.2 |
| 20260831153008 | 62 | 315 | 0.0 | 0.0 | 0.00 | 0.00 | 0.00 | 36 | 1010.1 |
| 20260831152508 | 61 | 315 | 0.0 | 0.0 | 0.00 | 0.00 | 0.00 | 36 | 1010.1 |
| 20260831152007 | 60 | 315 | 0.0 | 0.0 | 0.00 | 0.00 | 0.00 | 36 | 1010.1 |
| 20260831151507 | 59 | 315 | 0.0 | 0.0 | 0.00 | 0.00 | 0.00 | 38 | 1010.1 |
| 20260831151008 | 58 | 315 | 0.0 | 0.0 | 0.00 | 0.00 | 0.00 | 38 | 1010.0 |
| 20260831150507 | 57 | 315 | 0.0 | 0.0 | 0.00 | 0.00 | 0.00 | 39 | 1010.0 |
| 20260831150008 | 56 | 315 | 0.0 | 0.0 | 0.00 | 0.00 | 0.00 | 39 | 1009.8 |
| 20260831145507 | 56 | 315 | 0.0 | 0.0 | 0.00 | 0.00 | 0.00 | 39 | 1009.8 |
| 20260831145009 | 55 | 315 | 0.0 | 0.0 | 0.00 | 0.00 | 0.00 | 37 | 1009.8 |
| 20260831144507 | 56 | 315 | 0.0 | 0.0 | 0.00 | 0.00 | 0.00 | 37 | 1009.7 |
| 20260831144007 | 55 | 315 | 0.0 | 0.0 | 0.00 | 0.00 | 0.00 | 38 | 1009.7 |
| 20260831143507 | 55 | 315 | 0.0 | 0.0 | 0.00 | 0.00 | 0.00 | 38 | 1009.7 |
| 20260831143007 | 54 | 315 | 0.0 | 0.0 | 0.00 | 0.00 | 0.00 | 39 | 1009.6 |
| 20260831142506 | 54 | 315 | 0.0 | 0.0 | 0.00 | 0.00 | 0.00 | 40 | 1009.6 |
| 20260831142008 | 54 | 315 | 0.0 | 0.0 | 0.00 | 0.00 | 0.00 | 39 | 1009.6 |
| 20260831141614 | 53 | 315 | 0.0 | 0.0 | 0.00 | 0.00 | 0.00 | 40 | 1009.6 |
| 20260831141006 | 52 | 315 | 0.0 | 0.0 | 0.00 | 0.00 | 0.00 | 41 | 1009.6 |
| 20260831140507 | 52 | 315 | 0.0 | 0.0 | 0.00 | 0.00 | 0.00 | 41 | 1009.5 |
| 20260831140015 | 52 | 315 | 0.0 | 0.0 | 0.00 | 0.00 | 0.00 | 44 | 1009.3 |
| 20260831135507 | 52 | 315 | 0.0 | 0.0 | 0.00 | 0.00 | 0.00 | 42 | 1009.2 |
| 20260831135009 | 53 | 315 | 0.0 | 0.0 | 0.00 | 0.00 | 0.00 | 41 | 1009.3 |
| 20260831134507 | 53 | 315 | 0.0 | 0.0 | 0.00 | 0.00 | 0.00 | 41 | 1009.2 |
| 20260831134007 | 53 | 315 | 0.0 | 0.0 | 0.00 | 0.00 | 0.00 | 42 | 1009.2 |
| 20260831133507 | 53 | 315 | 0.0 | 0.0 | 0.00 | 0.00 | 0.00 | 43 | 1009.1 |